Location: Newark
(42.9858°N, 0.6717°E)
Time: 01:03:27
(UTC+00:00)

S-56A Canister/Altair - All Passes

Search period start: 20 November 2019 00:00
Search period end: 30 November 2019 00:00
Orbit: 634 x 2498 km, 38.9° (Epoch: 17 November)

Date Brightness Start Highest point End Pass type
(mag) Time Alt. Az. Time Alt. Az. Time Alt. Az.
20 Nov - 14:48:58 10° SSW 14:58:32 28° SSE 15:05:40 10° E daylight
20 Nov - 16:52:57 10° WSW 17:03:02 52° SSE 17:09:43 10° E visible
20 Nov - 18:58:59 10° W 19:07:11 63° S 19:12:42 10° ESE visible
20 Nov - 21:04:53 10° W 21:10:34 35° SSW 21:14:55 10° SE visible
21 Nov - 14:15:50 10° SSW 14:25:31 26° SSE 14:32:55 10° E daylight
21 Nov - 16:19:25 10° SW 16:30:07 51° SSE 16:37:16 10° E daylight
21 Nov - 18:25:30 10° W 18:34:28 65° S 18:40:22 10° E visible
21 Nov - 20:31:38 10° W 20:38:02 40° SSW 20:42:44 10° SE visible
22 Nov - 13:42:46 10° SSW 13:52:27 25° SE 14:00:03 10° E daylight
22 Nov - 15:45:53 10° SW 15:57:09 49° SSE 16:04:46 10° E daylight
22 Nov - 17:51:58 10° WSW 18:01:40 66° S 18:08:00 10° E visible
22 Nov - 19:58:18 10° W 20:05:28 46° SSW 20:10:31 10° SE visible
22 Nov - 22:05:31 10° WSW 22:08:00 13° SW 22:10:15 10° SSW night (unlit)
23 Nov - 13:09:48 10° S 13:19:20 23° SE 13:27:04 10° E daylight
23 Nov - 15:12:21 10° SW 15:24:08 47° SSE 15:32:13 10° E daylight
23 Nov - 17:18:21 10° WSW 17:28:49 66° S 17:35:36 10° E visible
23 Nov - 19:24:53 10° W 19:32:51 52° SSW 19:38:16 10° ESE visible
23 Nov - 21:31:45 10° W 21:35:33 17° SW 21:38:47 10° S visible
24 Nov - 12:36:59 10° S 12:46:13 21° SE 12:53:56 10° E daylight
24 Nov - 14:38:50 10° SW 14:51:01 46° SSE 14:59:38 10° E daylight
24 Nov - 16:44:41 10° WSW 16:55:53 66° S 17:03:11 10° E visible
24 Nov - 18:51:23 10° W 19:00:10 57° SSW 19:06:00 10° ESE visible
24 Nov - 20:58:09 10° W 21:03:06 21° SW 21:07:02 10° S visible
25 Nov - 12:04:19 10° S 12:13:04 19° SE 12:20:37 10° E daylight
25 Nov - 14:05:22 10° SW 14:17:52 44° SSE 14:26:57 10° E daylight
25 Nov - 16:10:59 10° WSW 16:22:54 66° S 16:30:43 10° E daylight
25 Nov - 18:17:50 10° W 18:27:25 61° SSW 18:33:41 10° ESE visible
25 Nov - 20:24:37 10° W 20:30:37 26° SW 20:35:08 10° SSE visible
26 Nov - 11:31:53 10° S 11:39:54 17° SE 11:47:04 10° ESE daylight
26 Nov - 13:31:58 10° SW 13:44:40 41° SSE 13:54:12 10° E daylight
26 Nov - 15:37:16 10° WSW 15:49:49 65° S 15:58:12 10° E daylight
26 Nov - 17:44:11 10° W 17:54:35 65° S 18:01:20 10° ESE visible
26 Nov - 19:51:04 10° W 19:58:04 32° SW 20:03:08 10° SSE visible
27 Nov - 10:59:46 10° SSE 11:06:45 15° SE 11:13:11 10° ESE daylight
27 Nov - 12:58:38 10° SSW 13:11:25 39° SSE 13:21:21 10° E daylight
27 Nov - 15:03:33 10° WSW 15:16:41 64° SSE 15:25:38 10° E daylight
27 Nov - 17:10:28 10° W 17:21:41 68° S 17:28:56 10° ESE visible
27 Nov - 19:17:28 10° W 19:25:28 37° SSW 19:31:03 10° SE visible
28 Nov - 10:28:10 10° SSE 10:33:36 13° SE 10:38:46 10° ESE daylight
28 Nov - 12:25:24 10° SSW 12:38:09 37° SSE 12:48:25 10° E daylight
28 Nov - 14:29:52 10° WSW 14:43:28 62° SSE 14:53:00 10° E daylight
28 Nov - 16:36:43 10° W 16:48:41 70° S 16:56:30 10° ESE visible
28 Nov - 18:43:50 10° W 18:52:48 43° SSW 18:58:53 10° SE visible
28 Nov - 20:53:12 10° WSW 20:55:06 11° SW 20:56:53 10° SSW visible
29 Nov - 09:57:51 10° SE 10:00:29 11° SE 10:03:04 10° ESE daylight
29 Nov - 11:52:17 10° SSW 12:04:50 34° SE 12:15:22 10° E daylight
29 Nov - 13:56:12 10° WSW 14:10:11 60° SSE 14:20:20 10° E daylight
29 Nov - 16:02:56 10° W 16:15:37 71° S 16:24:01 10° E daylight
29 Nov - 18:10:09 10° W 18:20:04 49° SSW 18:26:40 10° SE visible
29 Nov - 20:18:28 10° W 20:22:38 15° SW 20:26:08 10° SSW visible
